カタログに戻る

DMSP 5D-2 F13 DEB

運用中SSO
NORAD 40470·DEBRIS·🇺🇸 United States

打ち上げ Mar 24, 1995 から Vandenberg Space Force Base

Loading…

次のパス (今後24時間)

TLE

最新Source: Space-Track

元期: Sep 13, 2026, 11:20 UTC

1 40470U 95015BN  26256.47243556  .00002013  00000-0  89285-3 0  9993
2 40470  98.9997 259.0049 0042679 190.2747 169.7563 14.23755642592478

AllMySatでDMSP 5D-2 F13 DEBをリアルタイム追跡

Download on the App Store